VK6MTG Weather Reports


Display with metric or nautical units.
time (UTC)temp
F
wind
direction
speed
MPH
gust
MPH
rain 1hr
in
rain 24hr
in
rain mn
in
humidity
%
barometer
mb
20260504234045 60 90 3.0 3.0 0.00 0.00 0.00 69 1189.2
20260504233545 60 90 3.0 3.0 0.00 0.00 0.00 69 1189.2
20260504233045 59 0.0 0.0 0.00 0.00 0.00 69 1189.2
20260504232353 59 112 4.0 4.0 0.00 0.00 0.00 69 1187.2
20260504231854 59 112 4.0 4.0 0.00 0.00 0.00 69 1187.2
20260504231353 59 112 4.0 4.0 0.00 0.00 0.00 68 1187.2
20260504230854 59 124 4.0 4.0 0.00 0.00 0.00 68 1187.2
20260504230354 59 120 3.0 5.0 0.00 0.00 0.00 68 1187.2
20260504225854 59 68 3.0 6.0 0.00 0.00 0.00 68 1187.2
20260504225202 59 60 4.0 6.0 0.00 0.00 0.00 68 1181.2
20260504224702 59 15 3.0 6.0 0.00 0.00 0.00 68 1181.2
20260504224202 59 101 5.0 6.0 0.00 0.00 0.00 68 1183.2
20260504223702 59 56 4.0 5.0 0.00 0.00 0.00 68 1183.2
20260504223202 59 112 3.0 4.0 0.00 0.00 0.00 68 1183.2
20260504222702 59 124 4.0 4.0 0.00 0.00 0.00 68 1185.2
20260504222011 59 82 3.0 4.0 0.00 0.00 0.00 68 1185.2
20260504221511 0 101 3.0 6.0 0.00 0.00 0.00 1185.2
20260504220820 59 98 4.0 4.0 0.00 0.00 0.00 68 1191.3
20260504220320 59 38 3.0 4.0 0.00 0.00 0.00 68 1191.3
20260504215820 59 68 3.0 4.0 0.00 0.00 0.00 68 1191.3
20260504215320 59 98 2.0 3.0 0.00 0.00 0.00 68 1189.2
20260504214820 59 101 3.0 4.0 0.00 0.00 0.00 67 1189.2
20260504214320 59 94 4.0 4.0 0.00 0.00 0.00 67 1189.2
20260504213629 59 101 3.0 4.0 0.00 0.00 0.00 67 1190.2
20260504213128 59 90 2.0 4.0 0.00 0.00 0.00 67 1190.2
20260504212629 59 68 2.0 4.0 0.00 0.00 0.00 67 1194.3
20260504212128 59 82 2.0 4.0 0.00 0.00 0.00 67 1194.3
20260504211629 59 22 3.0 3.0 0.00 0.00 0.00 67 1194.3
20260504211128 59 45 1.0 2.0 0.00 0.00 0.00 67 1194.3
20260504210437 59 68 2.0 2.0 0.00 0.00 0.00 67 1194.3
20260504205937 59 68 2.0 2.0 0.00 0.00 0.00 67 1194.3
20260504205437 59 68 2.0 2.0 0.00 0.00 0.00 67 1196.3
20260504204937 59 101 2.0 2.0 0.00 0.00 0.00 67 1196.3
20260504204437 59 112 1.0 2.0 0.00 0.00 0.00 67 1196.3
20260504203746 59 90 0.0 3.0 0.00 0.00 0.00 66 1195.3
20260504203246 59 82 2.0 3.0 0.00 0.00 0.00 66 1195.3
20260504202746 59 90 1.0 5.0 0.00 0.00 0.00 66 1195.3
20260504202055 60 22 3.0 5.0 0.00 0.00 0.00 66 1197.3
20260504201555 60 112 4.0 6.0 0.00 0.00 0.00 66 1197.3
20260504201055 60 112 5.0 6.0 0.00 0.00 0.00 66 1203.4
20260504200555 60 101 4.0 6.0 0.00 0.00 0.00 66 1203.4
20260504200055 60 112 3.0 6.0 0.00 0.00 0.00 66 1203.4
20260504195555 60 90 6.0 6.0 0.00 0.00 0.00 66 1204.4
20260504195055 60 112 4.0 6.0 0.00 0.00 0.00 65 1204.4
20260504194555 60 112 6.0 6.0 0.00 0.00 0.00 65 1204.4
20260504194055 60 135 6.0 6.0 0.00 0.00 0.00 65 1204.4
20260504193555 60 79 5.0 6.0 0.00 0.00 0.00 65 1204.4
20260504192904 60 112 2.0 5.0 0.00 0.00 0.00 65 1204.4
20260504192403 60 112 5.0 5.0 0.00 0.00 0.00 65 1206.4
20260504191903 60 112 3.0 6.0 0.00 0.00 0.00 64 1206.4
20260504191403 60 90 4.0 6.0 0.00 0.00 0.00 64 1206.4
20260504190713 60 107 4.0 6.0 0.00 0.00 0.00 64 1205.4
20260504190212 60 52 4.0 6.0 0.00 0.00 0.00 64 1205.4
20260504185521 60 118 5.0 6.0 0.00 0.00 0.00 64 1202.4
20260504185021 60 112 3.0 6.0 0.00 0.00 0.00 64 1202.4
20260504184521 60 112 4.0 6.0 0.00 0.00 0.00 63 1202.4
20260504184021 60 142 3.0 6.0 0.00 0.00 0.00 63 1202.4
20260504183521 60 112 5.0 6.0 0.00 0.00 0.00 63 1202.4
20260504183021 60 112 3.0 6.0 0.00 0.00 0.00 63 1202.4
20260504182521 60 112 3.0 6.0 0.00 0.00 0.00 63 1206.4
20260504182021 0 129 3.0 6.0 0.00 0.00 0.00 1206.4
20260504181330 60 112 4.0 5.0 0.00 0.00 0.00 62 1206.4
20260504180638 60 98 3.0 4.0 0.00 0.00 0.00 62 1208.4
20260504180139 60 82 1.0 2.0 0.00 0.00 0.00 62 1208.4
20260504175639 61 128 1.0 3.0 0.00 0.00 0.00 62 1206.4
20260504175138 61 98 3.0 4.0 0.00 0.00 0.00 62 1206.4
20260504174639 61 135 2.0 4.0 0.00 0.00 0.00 62 1206.4
20260504174138 61 112 3.0 4.0 0.00 0.00 0.00 61 1205.4
20260504173447 61 60 3.0 5.0 0.00 0.00 0.00 61 1205.4
20260504172947 61 0 0.0 5.0 0.00 0.00 0.00 61 1205.4
20260504172447 61 101 1.0 3.0 0.00 0.00 0.00 61 1206.4
20260504171947 61 112 2.0 4.0 0.00 0.00 0.00 61 1206.4
20260504171447 61 105 2.0 4.0 0.00 0.00 0.00 61 1206.4
20260504170947 61 135 2.0 5.0 0.00 0.00 0.00 61 1206.4
20260504170256 61 112 1.0 2.0 0.00 0.00 0.00 61 1206.4
20260504160414 62 150 1.0 4.0 0.00 0.00 0.00 60 1204.4
20260504150722 63 158 0.0 1.0 0.00 0.00 0.00 58 1205.4
20260504141148 64 90 2.0 5.0 0.00 0.00 0.00 58 1201.4
20260504140649 64 90 2.0 4.0 0.00 0.00 0.00 58 1201.4
20260504140148 64 112 3.0 4.0 0.00 0.00 0.00 58 1201.4
20260504130806 66 98 2.0 6.0 0.00 0.00 0.00 59 1203.4
20260504130306 66 98 2.0 4.0 0.00 0.00 0.00 59 1203.4
20260504110349 67 169 3.0 6.0 0.00 0.00 0.00 56 1214.5
20260504100507 69 163 3.0 4.0 0.00 0.00 0.00 50 1213.5
20260504090124 72 202 5.0 5.0 0.00 0.00 0.00 42 1219.5
20260504081742 74 0.0 0.0 0.00 0.00 0.00 36 1220.5
20260504081242 74 0.0 0.0 0.00 0.00 0.00 35 1220.5
20260504080742 75 0.0 0.0 0.00 0.00 0.00 34 1220.5
20260504080241 76 0.0 0.0 0.00 0.00 0.00 33 1220.5
20260504070208 86 0.0 0.0 0.00 0.00 0.00 19 1220.5
20260504050251 74 0.0 0.0 0.00 0.00 0.00 39 1218.5
20260504045751 74 0.0 0.0 0.00 0.00 0.00 40 1218.5
20260504045251 73 0.0 0.0 0.00 0.00 0.00 41 1217.5
20260504044751 73 0.0 0.0 0.00 0.00 0.00 41 1217.5
20260504044251 73 0.0 0.0 0.00 0.00 0.00 41 1217.5
20260504043751 72 0.0 0.0 0.00 0.00 0.00 42 1217.5
20260504043251 72 0.0 0.0 0.00 0.00 0.00 42 1217.5
20260504042751 72 0.0 0.0 0.00 0.00 0.00 42 1217.5
20260504042251 72 0.0 0.0 0.00 0.00 0.00 43 1215.5
20260504041600 72 0.0 0.0 0.00 0.00 0.00 43 1215.5
20260504041100 71 0.0 0.0 0.00 0.00 0.00 44 1214.5
20260504040600 71 0.0 0.0 0.00 0.00 0.00 45 1214.5
20260504040100 71 0.0 0.0 0.00 0.00 0.00 45 1214.5
20260504035408 70 0.0 0.0 0.00 0.00 0.00 45 1212.5
20260504034908 70 0.0 0.0 0.00 0.00 0.00 46 1212.5
20260504034408 70 0.0 0.0 0.00 0.00 0.00 46 1212.5
20260504033908 70 0.0 0.0 0.00 0.00 0.00 48 1210.4
20260504033408 70 0.0 0.0 0.00 0.00 0.00 48 1210.4
20260504032908 70 0.0 0.0 0.00 0.00 0.00 49 1210.4
20260504032217 69 0.0 0.0 0.00 0.00 0.00 50 1207.4
20260504031525 69 0.0 0.0 0.00 0.00 0.00 52 1207.4
20260504031026 69 0.0 0.0 0.00 0.00 0.00 52 1203.4
20260504030525 68 0.0 0.0 0.00 0.00 0.00 52 1203.4
20260504030026 68 0.0 0.0 0.00 0.00 0.00 53 1203.4
20260504025526 68 0.0 0.0 0.00 0.00 0.00 54 1201.4
20260504025025 68 0.0 0.0 0.00 0.00 0.00 55 1201.4
20260504024334 67 0.0 0.0 0.00 0.00 0.00 56 1201.4
20260504023834 67 0.0 0.0 0.00 0.00 0.00 57 1199.3
20260504023335 67 0.0 0.0 0.00 0.00 0.00 59 1199.3
20260504022834 67 0.0 0.0 0.00 0.00 0.00 60 1199.3
20260504022334 67 0.0 0.0 0.00 0.00 0.00 60 1195.3
20260504021834 66 0.0 0.0 0.00 0.00 0.00 61 1195.3
20260504021334 66 0.0 0.0 0.00 0.00 0.00 62 1195.3
20260504020834 66 0.0 0.0 0.00 0.00 0.00 63 1191.3
20260504020143 66 0.0 0.0 0.00 0.00 0.00 64 1191.3
20260504015643 66 0.0 0.0 0.00 0.00 0.00 65 1191.3
20260504015143 66 0.0 0.0 0.00 0.00 0.00 65 1191.3
20260504014643 65 0.0 0.0 0.00 0.00 0.00 66 1191.3
20260504014143 65 0.0 0.0 0.00 0.00 0.00 67 1191.3
20260504013451 65 0.0 0.0 0.00 0.00 0.00 67 1191.3
20260504012800 65 0.0 0.0 0.00 0.00 0.00 68 1191.3
20260504012300 64 0.0 0.0 0.00 0.00 0.00 68 1191.3
20260504011800 64 0.0 0.0 0.00 0.00 0.00 68 1191.3
20260504011300 64 0.0 0.0 0.00 0.00 0.00 69 1191.3
20260504010800 64 0.0 0.0 0.00 0.00 0.00 69 1191.3
20260504010300 64 0.0 0.0 0.00 0.00 0.00 69 1191.3
20260504005800 64 0.0 0.0 0.00 0.00 0.00 69 1191.3
20260504005300 63 0.0 0.0 0.00 0.00 0.00 69 1189.2
20260504004800 63 0.0 0.0 0.00 0.00 0.00 69 1189.2
20260504004109 63 0.0 0.0 0.00 0.00 0.00 69 1190.2
20260504003609 62 0.0 0.0 0.00 0.00 0.00 70 1190.2
20260504003109 62 0.0 0.0 0.00 0.00 0.00 70 1190.2
20260504002609 62 0.0 0.0 0.00 0.00 0.00 70 1190.2
20260504001917 61 135 3.0 3.0 0.00 0.00 0.00 70 1190.2
20260504001417 61 135 3.0 3.0 0.00 0.00 0.00 70 1190.2
20260504000917 61 135 3.0 3.0 0.00 0.00 0.00 70 1191.3
20260504000417 60 135 3.0 4.0 0.00 0.00 0.00 70 1191.3
20260503235918 60 112 2.0 4.0 0.00 0.00 0.00 70 1191.3
20260503235417 60 105 3.0 4.0 0.00 0.00 0.00 70 1190.2
20260503234726 59 135 3.0 4.0 0.00 0.00 0.00 69 1190.2
20260503234226 59 68 3.0 3.0 0.00 0.00 0.00 69 1190.2